Weather History for KDYT - October, 2013

Change the Weather History Date:

Thursday, October 24, 2013

  Actual Average Record
Temperature  
Mean Temperature 38 °F -  
Max Temperature 44 °F 49 °F 76 °F (1963)
Min Temperature 33 °F 35 °F 15 °F (1960)
Degree Days  
Heating Degree Days 26    
Moisture  
Dew Point 29 °F    
Average Humidity 69    
Maximum Humidity 81    
Minimum Humidity 46    
Precipitation  
Precipitation 0.00 in - - ()
Sea Level Pressure  
Sea Level Pressure 30.16 in    
Wind  
Wind Speed 9 mph (West)    
Max Wind Speed 16 mph    
Max Gust Speed 18 mph    
Visibility 10 miles    
Events      
Averages and records for this station are not official NWS values.
T = Trace of Precipitation, MM = Missing Value Source: NWS Daily Summary

Daily Weather History Graph

Daily Weather History Graph

Search for Another Location

Airport or City:

Trip Planner

Search our weather history database for the weather conditions in past years. The results will help you decide how hot, cold, wet, or windy it might be!

Date:

Astronomy

Oct. 24, 2013 Rise Set
Actual Time 7:39 AM CDT 6:04 PM CDT
Civil Twilight 7:07 AM CDT 6:35 PM CDT
Nautical Twilight 6:32 AM CDT 7:11 PM CDT
Astronomical Twilight 5:57 AM CDT 7:46 PM CDT
Moon 10:22 PM CDT (10/24) 12:48 PM CDT (10/24)
Length of Visible Light 11h 28m
Length of Day
10h 25m
Waning Gibbous, 71% of the Moon is Illuminated
Oct 24
Waning Gibbous
Oct 26
Last Quarter
Nov 3
New
Nov 9
First Quarter
Nov 17
Full

Hourly Weather History & Observations

Time (CDT) Temp. Windchill Dew Point Humidity Pressure Visibility Wind Dir Wind Speed Gust Speed Precip Events Conditions
12:13 AM 35.6 °F 28.6 °F 28.4 °F 75% 30.05 in 10.0 mi West 9.2 mph - N/A   Overcast
12:34 AM 35.6 °F 27.5 °F 28.4 °F 75% 30.05 in 10.0 mi WNW 11.5 mph - N/A   Overcast
12:53 AM 35.6 °F 27.5 °F 28.4 °F 75% 30.05 in 10.0 mi WNW 11.5 mph - N/A   Overcast
1:13 AM 35.6 °F 28.6 °F 28.4 °F 75% 30.06 in 10.0 mi West 9.2 mph - N/A   Overcast
1:34 AM 35.6 °F 28.0 °F 28.4 °F 75% 30.06 in 10.0 mi West 10.4 mph - N/A   Overcast
1:53 AM 35.6 °F 28.0 °F 28.4 °F 75% 30.06 in 10.0 mi West 10.4 mph - N/A   Overcast
2:14 AM 35.6 °F 29.2 °F 28.4 °F 75% 30.07 in 10.0 mi NW 8.1 mph - N/A   Overcast
2:33 AM 35.6 °F 30.7 °F 28.4 °F 75% 30.07 in 10.0 mi WNW 5.8 mph - N/A   Overcast
2:54 AM 35.6 °F 30.7 °F 28.4 °F 75% 30.08 in 10.0 mi West 5.8 mph - N/A   Overcast
3:13 AM 35.6 °F 31.7 °F 28.4 °F 75% 30.08 in 10.0 mi West 4.6 mph - N/A   Overcast
3:33 AM 35.6 °F 30.7 °F 28.4 °F 75% 30.08 in 10.0 mi West 5.8 mph - N/A   Overcast
3:54 AM 35.6 °F 29.2 °F 28.4 °F 75% 30.08 in 10.0 mi WSW 8.1 mph - N/A   Overcast
4:13 AM 35.6 °F 29.2 °F 28.4 °F 75% 30.09 in 10.0 mi WSW 8.1 mph - N/A   Overcast
4:33 AM 35.6 °F 30.7 °F 28.4 °F 75% 30.09 in 10.0 mi SW 5.8 mph - N/A   Overcast
4:54 AM 35.6 °F 29.2 °F 28.4 °F 75% 30.10 in 10.0 mi West 8.1 mph - N/A   Overcast
5:13 AM 35.6 °F 28.0 °F 28.4 °F 75% 30.10 in 10.0 mi West 10.4 mph - N/A   Overcast
5:33 AM 35.6 °F 29.9 °F 28.4 °F 75% 30.10 in 10.0 mi West 6.9 mph - N/A   Overcast
5:54 AM 35.6 °F 29.9 °F 28.4 °F 75% 30.11 in 10.0 mi West 6.9 mph - N/A   Overcast
6:13 AM 35.6 °F 30.7 °F 28.4 °F 75% 30.11 in 10.0 mi West 5.8 mph - N/A   Overcast
6:33 AM 35.6 °F 28.6 °F 28.4 °F 75% 30.11 in 10.0 mi West 9.2 mph - N/A   Overcast
6:54 AM 35.6 °F 27.5 °F 28.4 °F 75% 30.12 in 10.0 mi West 11.5 mph - N/A   Overcast
7:13 AM 35.6 °F 28.6 °F 28.4 °F 75% 30.12 in 10.0 mi WNW 9.2 mph - N/A   Overcast
7:34 AM 35.6 °F 28.6 °F 28.4 °F 75% 30.13 in 10.0 mi West 9.2 mph - N/A   Overcast
7:53 AM 35.6 °F 29.9 °F 28.4 °F 75% 30.13 in 10.0 mi WSW 6.9 mph - N/A   Overcast
8:13 AM 35.6 °F 29.2 °F 28.4 °F 75% 30.14 in 10.0 mi SW 8.1 mph - N/A   Overcast
8:34 AM 33.8 °F 27.0 °F 28.4 °F 81% 30.15 in 10.0 mi SSW 8.1 mph - N/A   Overcast
8:53 AM 33.8 °F 27.0 °F 28.4 °F 81% 30.15 in 10.0 mi SW 8.1 mph - N/A   Overcast
9:13 AM 35.6 °F 29.2 °F 28.4 °F 75% 30.16 in 10.0 mi West 8.1 mph - N/A   Overcast
9:34 AM 35.6 °F 28.6 °F 28.4 °F 75% 30.16 in 10.0 mi West 9.2 mph - N/A   Mostly Cloudy
9:53 AM 35.6 °F 28.6 °F 28.4 °F 75% 30.16 in 10.0 mi WNW 9.2 mph 17.3 mph N/A   Overcast
10:13 AM 35.6 °F 29.2 °F 28.4 °F 75% 30.17 in 10.0 mi WNW 8.1 mph - N/A   Overcast
10:34 AM 37.4 °F 29.8 °F 28.4 °F 70% 30.17 in 10.0 mi WNW 11.5 mph - N/A   Mostly Cloudy
10:53 AM 37.4 °F 31.4 °F 28.4 °F 70% 30.18 in 10.0 mi West 8.1 mph - N/A   Mostly Cloudy
11:14 AM 37.4 °F 33.8 °F 28.4 °F 70% 30.18 in 10.0 mi WNW 4.6 mph - N/A   Overcast
11:33 AM 39.2 °F 30.5 °F 28.4 °F 65% 30.17 in 10.0 mi WNW 16.1 mph - N/A   Overcast
11:54 AM 39.2 °F 30.5 °F 26.6 °F 61% 30.18 in 10.0 mi WNW 16.1 mph - N/A   Overcast
12:13 PM 39.2 °F 32.5 °F 26.6 °F 61% 30.18 in 10.0 mi WNW 10.4 mph - N/A   Overcast
12:33 PM 39.2 °F 32.0 °F 26.6 °F 61% 30.18 in 10.0 mi NW 11.5 mph 15.0 mph N/A   Overcast
12:54 PM 39.2 °F 32.5 °F 26.6 °F 61% 30.19 in 10.0 mi NW 10.4 mph - N/A   Overcast
1:13 PM 39.2 °F 32.5 °F 26.6 °F 61% 30.19 in 10.0 mi WNW 10.4 mph - N/A   Overcast
1:33 PM 41.0 °F 33.9 °F 26.6 °F 57% 30.18 in 10.0 mi WNW 12.7 mph - N/A   Overcast
1:54 PM 41.0 °F 35.2 °F 24.8 °F 53% 30.18 in 10.0 mi NNW 9.2 mph - N/A   Mostly Cloudy
2:13 PM 42.8 °F 36.2 °F 24.8 °F 49% 30.18 in 10.0 mi NW 12.7 mph 18.4 mph N/A   Overcast
2:34 PM 44.6 °F 38.8 °F 24.8 °F 46% 30.18 in 10.0 mi NW 11.5 mph - N/A   Mostly Cloudy
2:53 PM 44.6 °F 38.8 °F 26.6 °F 49% 30.18 in 10.0 mi NNW 11.5 mph - N/A   Scattered Clouds
3:13 PM 44.6 °F 38.8 °F 26.6 °F 49% 30.18 in 10.0 mi WNW 11.5 mph 17.3 mph N/A   Mostly Cloudy
3:34 PM 44.6 °F 39.7 °F 24.8 °F 46% 30.18 in 10.0 mi NW 9.2 mph - N/A   Mostly Cloudy
3:53 PM 42.8 °F 38.6 °F 24.8 °F 49% 30.18 in 10.0 mi NW 6.9 mph - N/A   Mostly Cloudy
4:14 PM 44.6 °F 38.1 °F 28.4 °F 53% 30.19 in 10.0 mi WNW 13.8 mph - N/A   Overcast
4:33 PM 42.8 °F 35.1 °F 28.4 °F 57% 30.19 in 10.0 mi West 16.1 mph - N/A   Mostly Cloudy
4:53 PM 41.0 °F 33.1 °F 32.0 °F 70% 30.20 in 10.0 mi West 15.0 mph - N/A   Overcast
5:14 PM 41.0 °F 34.3 °F 30.2 °F 65% 30.20 in 10.0 mi West 11.5 mph - N/A   Overcast
5:33 PM 41.0 °F 34.7 °F 32.0 °F 70% 30.21 in 10.0 mi West 10.4 mph - N/A   Overcast
5:53 PM 41.0 °F 35.2 °F 32.0 °F 70% 30.21 in 10.0 mi West 9.2 mph - N/A   Overcast
6:14 PM 41.0 °F 35.8 °F 32.0 °F 70% 30.21 in 10.0 mi WSW 8.1 mph - N/A   Overcast
6:33 PM 41.0 °F 36.4 °F 32.0 °F 70% 30.22 in 10.0 mi WSW 6.9 mph - N/A   Overcast
6:53 PM 41.0 °F 36.4 °F 32.0 °F 70% 30.22 in 10.0 mi WSW 6.9 mph - N/A   Overcast
7:14 PM 39.2 °F 32.5 °F 32.0 °F 75% 30.22 in 10.0 mi WSW 10.4 mph - N/A   Overcast
7:33 PM 41.0 °F 34.7 °F 30.2 °F 65% 30.23 in 10.0 mi West 10.4 mph - N/A   Overcast
7:54 PM 39.2 °F 33.6 °F 30.2 °F 70% 30.23 in 10.0 mi WSW 8.1 mph - N/A   Overcast
8:13 PM 39.2 °F 33.0 °F 28.4 °F 65% 30.23 in 10.0 mi WSW 9.2 mph - N/A   Mostly Cloudy
8:33 PM 39.2 °F 33.6 °F 30.2 °F 70% 30.23 in 10.0 mi WSW 8.1 mph - N/A   Mostly Cloudy
8:54 PM 39.2 °F 33.0 °F 30.2 °F 70% 30.24 in 10.0 mi West 9.2 mph - N/A   Overcast
9:13 PM 39.2 °F 32.5 °F 30.2 °F 70% 30.24 in 10.0 mi WSW 10.4 mph - N/A   Overcast
9:34 PM 39.2 °F 33.0 °F 30.2 °F 70% 30.24 in 10.0 mi WSW 9.2 mph - N/A   Overcast
9:53 PM 39.2 °F 32.5 °F 30.2 °F 70% 30.25 in 10.0 mi WSW 10.4 mph 16.1 mph N/A   Overcast
10:13 PM 39.2 °F 33.0 °F 30.2 °F 70% 30.25 in 10.0 mi WSW 9.2 mph - N/A   Overcast
10:33 PM 37.4 °F 31.4 °F 30.2 °F 75% 30.25 in 10.0 mi WSW 8.1 mph - N/A   Mostly Cloudy
10:53 PM 37.4 °F 30.8 °F 30.2 °F 75% 30.25 in 10.0 mi WSW 9.2 mph - N/A   Overcast
11:13 PM 37.4 °F 32.8 °F 30.2 °F 75% 30.25 in 10.0 mi WSW 5.8 mph - N/A   Overcast
11:33 PM 37.4 °F 32.1 °F 30.2 °F 75% 30.26 in 10.0 mi WSW 6.9 mph - N/A   Overcast
11:54 PM 37.4 °F 31.4 °F 30.2 °F 75% 30.25 in 10.0 mi SW 8.1 mph - N/A   Overcast